Location: Axtheid
(49.6213°N, 11.8205°E)
Time: 13:41:43
(UTC+00:00)

SJ 16-02 - Pass Details

Date: 24 January 2021
Orbit: 607 x 615 km, 75.0° (Epoch: 26 February)

Event Time Altitude Azimuth Distance (km) Brightness Sun altitude
Rises 16:31:58 0° 175° (S) 2,864 5.0 -6.2°
Reaches altitude 10° 16:34:21 10° 166° (SSE) 1,963 4.0 -6.6°
Maximum altitude 16:38:17 33° 102° (ESE) 1,035 2.1 -7.2°
Drops below altitude 10° 16:42:13 10° 39° (NE) 1,973 3.4 -7.8°
Enters shadow 16:43:31 - 33° (NNE) 2,455 3.9 -8.0°
